Time,TemperatureF,DewpointF,PressureIn,WindDirection,WindDirectionDegrees,WindSpeedMPH,WindSpeedGustMPH,Humidity,HourlyPrecipIn,Conditions,Clouds,dailyrainin,SoftwareType,DateUTC
2013-06-19 00:02:00,83.0,-99.9,30.02,SE,145,3.0,7.0,-999,-99.99,,,-99.99,,2013-06-19 04:02:00,
2013-06-19 00:12:00,83.0,-99.9,30.01,SSE,152,4.0,7.0,-999,-99.99,,,-99.99,,2013-06-19 04:12:00,
2013-06-19 00:23:00,83.0,-99.9,30.01,SSE,156,4.0,8.0,-999,-99.99,,,-99.99,,2013-06-19 04:23:00,
2013-06-19 00:33:00,83.0,-99.9,30.01,SSE,149,6.0,9.0,-999,-99.99,,,-99.99,,2013-06-19 04:33:00,
2013-06-19 00:43:00,82.0,-99.9,30.02,SE,146,8.0,15.0,-999,-99.99,,,-99.99,,2013-06-19 04:43:00,
2013-06-19 00:53:00,81.0,-99.9,30.02,SSE,147,5.0,10.0,-999,-99.99,,,-99.99,,2013-06-19 04:53:00,
2013-06-19 01:01:00,81.0,-99.9,30.02,SE,136,5.0,8.0,-999,-99.99,,,-99.99,,2013-06-19 05:01:00,
2013-06-19 01:11:00,81.0,-99.9,30.01,SE,136,3.0,5.0,-999,-99.99,,,-99.99,,2013-06-19 05:11:00,
2013-06-19 01:23:00,81.0,-99.9,30.01,SE,126,2.0,6.0,-999,-99.99,,,-99.99,,2013-06-19 05:23:00,
2013-06-19 01:33:00,82.0,-99.9,30.01,SE,145,4.0,6.0,-999,-99.99,,,-99.99,,2013-06-19 05:33:00,
2013-06-19 01:43:00,82.0,-99.9,30.01,SE,126,5.0,6.0,-999,-99.99,,,-99.99,,2013-06-19 05:43:00,
2013-06-19 01:52:00,82.0,-99.9,30.01,SE,129,5.0,10.0,-999,-99.99,,,-99.99,,2013-06-19 05:52:00,
2013-06-19 02:02:00,82.0,-99.9,30.01,SE,144,4.0,8.0,-999,-99.99,,,-99.99,,2013-06-19 06:02:00,
2013-06-19 02:12:00,82.0,-99.9,30.00,SE,144,4.0,7.0,-999,-99.99,,,-99.99,,2013-06-19 06:12:00,
2013-06-19 02:22:00,82.0,-99.9,30.00,SE,144,4.0,7.0,-999,-99.99,,,-99.99,,2013-06-19 06:22:00,
2013-06-19 02:34:00,82.0,-99.9,30.00,SE,133,5.0,9.0,-999,-99.99,,,-99.99,,2013-06-19 06:34:00,
2013-06-19 02:43:00,82.0,-99.9,29.99,ESE,121,4.0,10.0,-999,-99.99,,,-99.99,,2013-06-19 06:43:00,
2013-06-19 02:52:00,82.0,-99.9,29.99,SE,142,3.0,10.0,-999,-99.99,,,-99.99,,2013-06-19 06:52:00,
2013-06-19 03:01:00,82.0,-99.9,29.99,SE,140,4.0,7.0,-999,-99.99,,,-99.99,,2013-06-19 07:01:00,
2013-06-19 03:12:00,82.0,-99.9,29.99,SE,136,3.0,7.0,-999,-99.99,,,-99.99,,2013-06-19 07:12:00,
2013-06-19 03:23:00,82.0,-99.9,29.99,SE,135,4.0,7.0,-999,-99.99,,,-99.99,,2013-06-19 07:23:00,
2013-06-19 03:33:00,82.0,-99.9,29.99,SE,139,4.0,8.0,-999,-99.99,,,-99.99,,2013-06-19 07:33:00,
2013-06-19 03:43:00,82.0,-99.9,29.99,SSE,148,4.0,9.0,-999,-99.99,,,-99.99,,2013-06-19 07:43:00,
2013-06-19 03:54:00,82.0,-99.9,29.99,SSE,148,4.0,9.0,-999,-99.99,,,-99.99,,2013-06-19 07:54:00,
2013-06-19 04:02:00,82.0,-99.9,29.99,SE,137,5.0,7.0,-999,-99.99,,,-99.99,,2013-06-19 08:02:00,
2013-06-19 04:11:00,82.0,-99.9,29.99,ESE,119,5.0,7.0,-999,-99.99,,,-99.99,,2013-06-19 08:11:00,
2013-06-19 04:22:00,82.0,-99.9,29.99,ESE,119,5.0,7.0,-999,-99.99,,,-99.99,,2013-06-19 08:22:00,
2013-06-19 04:34:00,82.0,-99.9,29.99,SE,127,3.0,7.0,-999,-99.99,,,-99.99,,2013-06-19 08:34:00,
2013-06-19 04:43:00,82.0,-99.9,30.00,SE,129,4.0,6.0,-999,-99.99,,,-99.99,,2013-06-19 08:43:00,
2013-06-19 04:54:00,82.0,-99.9,30.00,SE,124,4.0,5.0,-999,-99.99,,,-99.99,,2013-06-19 08:54:00,
2013-06-19 05:02:00,82.0,-99.9,30.00,SE,126,4.0,6.0,-999,-99.99,,,-99.99,,2013-06-19 09:02:00,
2013-06-19 05:12:00,82.0,-99.9,30.00,SE,130,4.0,7.0,-999,-99.99,,,-99.99,,2013-06-19 09:12:00,
2013-06-19 05:22:00,82.0,-99.9,30.00,SE,140,4.0,7.0,-999,-99.99,,,-99.99,,2013-06-19 09:22:00,
2013-06-19 05:34:00,82.0,-99.9,30.00,SE,140,4.0,7.0,-999,-99.99,,,-99.99,,2013-06-19 09:34:00,
2013-06-19 05:44:00,82.0,-99.9,30.00,SE,126,3.0,6.0,-999,-99.99,,,-99.99,,2013-06-19 09:44:00,
2013-06-19 05:53:00,82.0,-99.9,30.00,SE,133,3.0,6.0,-999,-99.99,,,-99.99,,2013-06-19 09:53:00,
2013-06-19 06:02:00,82.0,-99.9,30.00,SE,129,3.0,6.0,-999,-99.99,,,-99.99,,2013-06-19 10:02:00,
2013-06-19 06:12:00,82.0,-99.9,30.00,SE,142,3.0,6.0,-999,-99.99,,,-99.99,,2013-06-19 10:12:00,
2013-06-19 06:22:00,82.0,-99.9,30.00,SE,136,4.0,8.0,-999,-99.99,,,-99.99,,2013-06-19 10:22:00,
2013-06-19 06:33:00,82.0,-99.9,30.00,ESE,123,4.0,5.0,-999,-99.99,,,-99.99,,2013-06-19 10:33:00,
2013-06-19 06:43:00,82.0,-99.9,30.00,SSE,148,4.0,6.0,-999,-99.99,,,-99.99,,2013-06-19 10:43:00,
2013-06-19 06:53:00,82.0,-99.9,30.01,SE,136,4.0,6.0,-999,-99.99,,,-99.99,,2013-06-19 10:53:00,
2013-06-19 07:02:00,82.0,-99.9,30.01,ESE,115,3.0,8.0,-999,-99.99,,,-99.99,,2013-06-19 11:02:00,
2013-06-19 07:12:00,82.0,-99.9,30.01,ESE,120,4.0,6.0,-999,-99.99,,,-99.99,,2013-06-19 11:12:00,
2013-06-19 07:22:00,82.0,-99.9,30.01,ESE,122,5.0,10.0,-999,-99.99,,,-99.99,,2013-06-19 11:22:00,
2013-06-19 07:33:00,83.0,-99.9,30.01,SE,142,5.0,9.0,-999,-99.99,,,-99.99,,2013-06-19 11:33:00,
2013-06-19 07:43:00,83.0,-99.9,30.01,SE,142,5.0,9.0,-999,-99.99,,,-99.99,,2013-06-19 11:43:00,
2013-06-19 07:54:00,83.0,-99.9,30.01,SE,129,4.0,8.0,-999,-99.99,,,-99.99,,2013-06-19 11:54:00,
2013-06-19 08:02:00,83.0,-99.9,30.02,SE,127,4.0,7.0,-999,-99.99,,,-99.99,,2013-06-19 12:02:00,
2013-06-19 08:12:00,84.0,-99.9,30.02,SE,132,5.0,10.0,-999,-99.99,,,-99.99,,2013-06-19 12:12:00,
2013-06-19 08:22:00,84.0,-99.9,30.02,SE,130,6.0,11.0,-999,-99.99,,,-99.99,,2013-06-19 12:22:00,
2013-06-19 08:34:00,84.0,-99.9,30.02,SE,129,7.0,12.0,-999,-99.99,,,-99.99,,2013-06-19 12:34:00,
2013-06-19 08:44:00,85.0,-99.9,30.03,SE,132,5.0,11.0,-999,-99.99,,,-99.99,,2013-06-19 12:44:00,
2013-06-19 08:53:00,85.0,-99.9,30.03,ESE,121,5.0,10.0,-999,-99.99,,,-99.99,,2013-06-19 12:53:00,
2013-06-19 09:02:00,85.0,-99.9,30.03,ESE,121,5.0,10.0,-999,-99.99,,,-99.99,,2013-06-19 13:02:00,
2013-06-19 09:12:00,85.0,-99.9,30.03,SE,134,4.0,9.0,-999,-99.99,,,-99.99,,2013-06-19 13:12:00,
2013-06-19 09:22:00,85.0,-99.9,30.03,ESE,111,5.0,9.0,-999,-99.99,,,-99.99,,2013-06-19 13:22:00,
2013-06-19 09:33:00,85.0,-99.9,30.03,SE,129,5.0,7.0,-999,-99.99,,,-99.99,,2013-06-19 13:33:00,
2013-06-19 09:43:00,85.0,-99.9,30.03,SE,142,8.0,11.0,-999,-99.99,,,-99.99,,2013-06-19 13:43:00,
2013-06-19 09:54:00,85.0,-99.9,30.03,SSE,149,7.0,11.0,-999,-99.99,,,-99.99,,2013-06-19 13:54:00,
2013-06-19 10:02:00,86.0,-99.9,30.03,SE,129,6.0,11.0,-999,-99.99,,,-99.99,,2013-06-19 14:02:00,
2013-06-19 10:12:00,86.0,-99.9,30.03,SE,129,6.0,11.0,-999,-99.99,,,-99.99,,2013-06-19 14:12:00,
2013-06-19 10:23:00,84.0,-99.9,30.03,SE,139,6.0,12.0,-999,-99.99,,,-99.99,,2013-06-19 14:23:00,
2013-06-19 10:34:00,85.0,-99.9,30.03,SE,144,8.0,12.0,-999,-99.99,,,-99.99,,2013-06-19 14:34:00,
2013-06-19 10:44:00,86.0,-99.9,30.03,SE,140,6.0,11.0,-999,-99.99,,,-99.99,,2013-06-19 14:44:00,
2013-06-19 10:53:00,86.0,-99.9,30.02,ESE,121,7.0,12.0,-999,-99.99,,,-99.99,,2013-06-19 14:53:00,
2013-06-19 11:02:00,86.0,-99.9,30.02,SE,138,7.0,10.0,-999,-99.99,,,-99.99,,2013-06-19 15:02:00,
2013-06-19 11:11:00,86.0,-99.9,30.02,SE,131,6.0,10.0,-999,-99.99,,,-99.99,,2013-06-19 15:11:00,
2013-06-19 11:22:00,87.0,-99.9,30.02,ESE,119,5.0,11.0,-999,-99.99,,,-99.99,,2013-06-19 15:22:00,
2013-06-19 11:33:00,86.0,-99.9,30.03,SE,135,8.0,12.0,-999,-99.99,,,-99.99,,2013-06-19 15:33:00,
2013-06-19 11:43:00,86.0,-99.9,30.03,SE,135,8.0,12.0,-999,-99.99,,,-99.99,,2013-06-19 15:43:00,
2013-06-19 11:53:00,86.0,-99.9,30.03,SE,133,6.0,11.0,-999,-99.99,,,-99.99,,2013-06-19 15:53:00,
2013-06-19 12:02:00,85.0,-99.9,30.03,SE,134,7.0,12.0,-999,-99.99,,,-99.99,,2013-06-19 16:02:00,
2013-06-19 12:11:00,85.0,-99.9,30.03,SE,134,7.0,12.0,-999,-99.99,,,-99.99,,2013-06-19 16:11:00,
2013-06-19 12:22:00,85.0,-99.9,30.03,SE,142,8.0,12.0,-999,-99.99,,,-99.99,,2013-06-19 16:22:00,
2013-06-19 12:34:00,87.0,-99.9,30.03,SE,144,6.0,9.0,-999,-99.99,,,-99.99,,2013-06-19 16:34:00,
2013-06-19 12:43:00,85.0,-99.9,30.02,SSE,147,7.0,12.0,-999,-99.99,,,-99.99,,2013-06-19 16:43:00,
2013-06-19 12:53:00,86.0,-99.9,30.02,SSE,152,9.0,14.0,-999,-99.99,,,-99.99,,2013-06-19 16:53:00,
2013-06-19 13:02:00,86.0,-99.9,30.02,SSE,152,9.0,14.0,-999,-99.99,,,-99.99,,2013-06-19 17:02:00,
2013-06-19 13:12:00,86.0,-99.9,30.02,SSE,149,9.0,13.0,-999,-99.99,,,-99.99,,2013-06-19 17:12:00,
2013-06-19 13:22:00,87.0,-99.9,30.02,SSE,150,6.0,12.0,-999,-99.99,,,-99.99,,2013-06-19 17:22:00,
2013-06-19 13:34:00,86.0,-99.9,30.02,SE,144,9.0,13.0,-999,-99.99,,,-99.99,,2013-06-19 17:34:00,
2013-06-19 13:43:00,86.0,-99.9,30.01,SE,136,9.0,15.0,-999,-99.99,,,-99.99,,2013-06-19 17:43:00,
2013-06-19 13:53:00,86.0,-99.9,30.01,SE,131,8.0,15.0,-999,-99.99,,,-99.99,,2013-06-19 17:53:00,
2013-06-19 14:02:00,86.0,-99.9,30.01,SE,131,8.0,15.0,-999,-99.99,,,-99.99,,2013-06-19 18:02:00,
2013-06-19 14:12:00,86.0,-99.9,30.01,SE,127,8.0,15.0,-999,-99.99,,,-99.99,,2013-06-19 18:12:00,
2013-06-19 14:24:00,86.0,-99.9,30.01,SE,127,8.0,15.0,-999,-99.99,,,-99.99,,2013-06-19 18:24:00,
2013-06-19 14:33:00,87.0,-99.9,30.01,SSE,157,7.0,13.0,-999,-99.99,,,-99.99,,2013-06-19 18:33:00,
2013-06-19 14:44:00,87.0,-99.9,30.01,SSE,157,7.0,13.0,-999,-99.99,,,-99.99,,2013-06-19 18:44:00,
2013-06-19 14:53:00,86.0,-99.9,30.00,SE,143,8.0,13.0,-999,-99.99,,,-99.99,,2013-06-19 18:53:00,
2013-06-19 15:02:00,86.0,-99.9,30.00,SE,143,8.0,13.0,-999,-99.99,,,-99.99,,2013-06-19 19:02:00,
2013-06-19 15:12:00,86.0,-99.9,30.00,SE,143,8.0,13.0,-999,-99.99,,,-99.99,,2013-06-19 19:12:00,
2013-06-19 15:22:00,87.0,-99.9,29.99,SE,131,6.0,14.0,-999,-99.99,,,-99.99,,2013-06-19 19:22:00,
2013-06-19 15:33:00,87.0,-99.9,30.00,SE,141,7.0,11.0,-999,-99.99,,,-99.99,,2013-06-19 19:33:00,
2013-06-19 15:44:00,86.0,-99.9,29.99,SE,133,8.0,12.0,-999,-99.99,,,-99.99,,2013-06-19 19:44:00,
2013-06-19 15:53:00,86.0,-99.9,29.99,SE,128,8.0,12.0,-999,-99.99,,,-99.99,,2013-06-19 19:53:00,
2013-06-19 16:02:00,86.0,-99.9,29.99,SE,128,8.0,12.0,-999,-99.99,,,-99.99,,2013-06-19 20:02:00,
2013-06-19 16:12:00,86.0,-99.9,29.99,ESE,109,7.0,11.0,-999,-99.99,,,-99.99,,2013-06-19 20:12:00,
2013-06-19 16:22:00,87.0,-99.9,29.98,SSE,151,7.0,13.0,-999,-99.99,,,-99.99,,2013-06-19 20:22:00,
2013-06-19 16:33:00,87.0,-99.9,29.98,SE,137,5.0,13.0,-999,-99.99,,,-99.99,,2013-06-19 20:33:00,
2013-06-19 16:43:00,86.0,-99.9,29.99,ESE,120,6.0,11.0,-999,-99.99,,,-99.99,,2013-06-19 20:43:00,
2013-06-19 16:52:00,86.0,-99.9,29.99,SE,131,8.0,11.0,-999,-99.99,,,-99.99,,2013-06-19 20:52:00,
2013-06-19 17:02:00,86.0,-99.9,29.99,SE,131,8.0,11.0,-999,-99.99,,,-99.99,,2013-06-19 21:02:00,
2013-06-19 17:12:00,86.0,-99.9,29.98,SSE,148,6.0,11.0,-999,-99.99,,,-99.99,,2013-06-19 21:12:00,
2013-06-19 17:22:00,86.0,-99.9,29.98,SE,135,7.0,12.0,-999,-99.99,,,-99.99,,2013-06-19 21:22:00,
2013-06-19 17:33:00,86.0,-99.9,29.98,East,100,7.0,15.0,-999,-99.99,,,-99.99,,2013-06-19 21:33:00,
2013-06-19 17:44:00,86.0,-99.9,29.98,ESE,117,8.0,12.0,-999,-99.99,,,-99.99,,2013-06-19 21:44:00,
2013-06-19 17:52:00,86.0,-99.9,29.97,ESE,114,6.0,11.0,-999,-99.99,,,-99.99,,2013-06-19 21:52:00,
2013-06-19 18:02:00,86.0,-99.9,29.97,ESE,114,6.0,11.0,-999,-99.99,,,-99.99,,2013-06-19 22:02:00,
2013-06-19 18:12:00,86.0,-99.9,29.97,SE,144,5.0,12.0,-999,-99.99,,,-99.99,,2013-06-19 22:12:00,
2013-06-19 18:22:00,86.0,-99.9,29.97,SE,124,7.0,11.0,-999,-99.99,,,-99.99,,2013-06-19 22:22:00,
2013-06-19 18:34:00,86.0,-99.9,29.97,SE,128,7.0,11.0,-999,-99.99,,,-99.99,,2013-06-19 22:34:00,
2013-06-19 18:43:00,86.0,-99.9,29.97,SE,128,7.0,11.0,-999,-99.99,,,-99.99,,2013-06-19 22:43:00,
2013-06-19 18:53:00,85.0,-99.9,29.97,SE,130,7.0,13.0,-999,-99.99,,,-99.99,,2013-06-19 22:53:00,
2013-06-19 19:02:00,86.0,-99.9,29.98,ESE,116,7.0,11.0,-999,-99.99,,,-99.99,,2013-06-19 23:02:00,
2013-06-19 19:12:00,86.0,-99.9,29.98,ESE,116,7.0,11.0,-999,-99.99,,,-99.99,,2013-06-19 23:12:00,
2013-06-19 19:23:00,85.0,-99.9,29.98,SE,124,6.0,12.0,-999,-99.99,,,-99.99,,2013-06-19 23:23:00,
2013-06-19 19:34:00,85.0,-99.9,29.98,SE,124,6.0,12.0,-999,-99.99,,,-99.99,,2013-06-19 23:34:00,
2013-06-19 19:43:00,85.0,-99.9,29.98,SE,124,6.0,12.0,-999,-99.99,,,-99.99,,2013-06-19 23:43:00,
2013-06-19 19:52:00,85.0,-99.9,29.98,ESE,119,7.0,12.0,-999,-99.99,,,-99.99,,2013-06-19 23:52:00,
2013-06-19 20:02:00,85.0,-99.9,29.99,ESE,113,7.0,11.0,-999,-99.99,,,-99.99,,2013-06-20 00:02:00,
2013-06-19 20:12:00,84.0,-99.9,30.00,ESE,114,5.0,11.0,-999,-99.99,,,-99.99,,2013-06-20 00:12:00,
2013-06-19 20:22:00,84.0,-99.9,30.00,East,99,5.0,10.0,-999,-99.99,,,-99.99,,2013-06-20 00:22:00,
2013-06-19 20:34:00,84.0,-99.9,30.01,ESE,119,6.0,9.0,-999,-99.99,,,-99.99,,2013-06-20 00:34:00,
2013-06-19 20:44:00,84.0,-99.9,30.01,East,97,5.0,9.0,-999,-99.99,,,-99.99,,2013-06-20 00:44:00,
2013-06-19 20:52:00,84.0,-99.9,30.01,ESE,105,8.0,11.0,-999,-99.99,,,-99.99,,2013-06-20 00:52:00,
2013-06-19 21:02:00,84.0,-99.9,30.01,ESE,118,6.0,11.0,-999,-99.99,,,-99.99,,2013-06-20 01:02:00,
2013-06-19 21:12:00,84.0,-99.9,30.01,East,95,5.0,12.0,-999,-99.99,,,-99.99,,2013-06-20 01:12:00,
2013-06-19 21:22:00,84.0,-99.9,30.01,ESE,111,5.0,8.0,-999,-99.99,,,-99.99,,2013-06-20 01:22:00,
2013-06-19 21:34:00,84.0,-99.9,30.01,ESE,113,6.0,12.0,-999,-99.99,,,-99.99,,2013-06-20 01:34:00,
2013-06-19 21:44:00,84.0,-99.9,30.02,ESE,105,7.0,10.0,-999,-99.99,,,-99.99,,2013-06-20 01:44:00,
2013-06-19 21:53:00,84.0,-99.9,30.02,ESE,105,5.0,11.0,-999,-99.99,,,-99.99,,2013-06-20 01:53:00,
2013-06-19 22:02:00,84.0,-99.9,30.02,ESE,105,5.0,11.0,-999,-99.99,,,-99.99,,2013-06-20 02:02:00,
2013-06-19 22:12:00,83.0,-99.9,30.02,ESE,105,6.0,9.0,-999,-99.99,,,-99.99,,2013-06-20 02:12:00,
2013-06-19 22:24:00,83.0,-99.9,30.02,ESE,106,6.0,11.0,-999,-99.99,,,-99.99,,2013-06-20 02:24:00,
2013-06-19 22:34:00,83.0,-99.9,30.03,ESE,111,7.0,10.0,-999,-99.99,,,-99.99,,2013-06-20 02:34:00,
2013-06-19 22:43:00,83.0,-99.9,30.03,ESE,112,7.0,11.0,-999,-99.99,,,-99.99,,2013-06-20 02:43:00,
2013-06-19 22:53:00,83.0,-99.9,30.03,ESE,116,6.0,11.0,-999,-99.99,,,-99.99,,2013-06-20 02:53:00,
2013-06-19 23:02:00,83.0,-99.9,30.03,ESE,109,8.0,12.0,-999,-99.99,,,-99.99,,2013-06-20 03:02:00,
2013-06-19 23:12:00,83.0,-99.9,30.03,ESE,119,8.0,12.0,-999,-99.99,,,-99.99,,2013-06-20 03:12:00,
2013-06-19 23:22:00,83.0,-99.9,30.03,ESE,120,7.0,12.0,-999,-99.99,,,-99.99,,2013-06-20 03:22:00,
2013-06-19 23:33:00,83.0,-99.9,30.03,ESE,115,7.0,12.0,-999,-99.99,,,-99.99,,2013-06-20 03:33:00,
2013-06-19 23:43:00,83.0,-99.9,30.04,ESE,116,5.0,11.0,-999,-99.99,,,-99.99,,2013-06-20 03:43:00,
2013-06-19 23:54:00,83.0,-99.9,30.03,ESE,122,6.0,9.0,-999,-99.99,,,-99.99,,2013-06-20 03:54:00,